KC0AFB Weather Reports


time (UTC)temp
C
wind
direction
speed
KPH
gust
KPH
rain 1hr
cm
rain 24hr
cm
rain mn
cm
humidity
%
barometer
mb
20260906211126 25 110 8.0 9.7 0.00 0.66 0.66 76 1014.0
20260906210622 25 120 9.7 11.3 0.00 0.66 0.66 75 1014.3
20260906210116 25 100 4.8 4.8 0.00 0.66 0.66 78 1014.3
20260906205612 25 119 6.4 8.0 0.00 0.66 0.66 78 1014.4
20260906205108 25 121 8.0 9.7 0.00 0.66 0.66 79 1014.6
20260906204601 25 92 4.8 4.8 0.00 0.66 0.66 78 1014.5
20260906204056 25 61 6.4 8.0 0.00 0.66 0.66 78 1015.0
20260906203556 25 59 4.8 4.8 0.00 0.66 0.66 80 1014.8
20260906203051 25 120 4.8 8.0 0.00 0.66 0.66 81 1015.0
20260906202548 24 94 6.4 8.0 0.00 0.66 0.66 81 1015.1
20260906202048 25 92 8.0 9.7 0.00 0.66 0.66 82 1015.4
20260906201548 24 123 11.3 11.3 0.00 0.66 0.66 81 1015.3
20260906201048 24 137 9.7 12.9 0.00 0.66 0.66 83 1015.4
20260906200544 24 167 11.3 12.9 0.00 0.66 0.66 82 1015.4
20260906200040 23 162 12.9 14.5 0.00 0.66 0.66 82 1015.6
20260906195540 23 123 9.7 11.3 0.00 0.66 0.66 85 1015.6
20260906195037 23 156 11.3 12.9 0.00 0.66 0.66 85 1015.6
20260906194532 22 151 11.3 14.5 0.00 0.66 0.66 87 1016.1
20260906194028 22 140 11.3 12.9 0.00 0.66 0.66 87 1015.9
20260906193528 22 131 12.9 14.5 0.00 0.66 0.66 86 1016.2
20260906193023 21 150 8.0 9.7 0.00 0.66 0.66 88 1016.2
20260906192519 21 164 14.5 14.5 0.00 0.66 0.66 88 1016.7
20260906192017 21 166 20.9 24.1 0.00 0.66 0.66 90 1017.0
20260906191513 22 126 22.5 25.7 0.00 0.66 0.66 93 1016.8
20260906191012 22 166 6.4 9.7 0.00 0.66 0.66 93 1016.1
20260906190511 22 99 6.4 8.0 0.00 0.66 0.66 93 1015.9
20260906190007 22 131 11.3 12.9 0.00 0.66 0.66 93 1016.1
20260906185505 23 103 6.4 8.0 0.00 0.66 0.66 94 1015.6
20260906185004 22 76 11.3 12.9 0.00 0.66 0.66 94 1015.1
20260906184500 22 88 8.0 11.3 0.00 0.66 0.66 94 1015.4
20260906183955 22 63 6.4 8.0 0.00 0.66 0.66 94 1015.7
20260906183450 22 11 6.4 8.0 0.13 0.66 0.66 93 1015.4
20260906182946 22 350 3.2 3.2 0.13 0.66 0.66 93 1015.0
20260906182436 22 55 4.8 4.8 0.36 0.64 0.64 93 1015.6
20260906181932 21 43 4.8 4.8 1.85 0.64 0.64 93 1015.8
20260906181427 22 202 8.0 9.7 2.16 0.56 0.56 92 1016.4
20260906180923 22 177 11.3 12.9 1.27 0.30 0.30 91 1016.8
20260906180417 23 149 6.4 8.0 1.02 0.20 0.20 89 1016.8
20260906175915 23 345 4.8 4.8 0.61 0.10 0.10 88 1016.1
20260906175404 23 322 4.8 4.8 0.18 0.03 0.03 87 1016.3
20260906174902 23 314 8.0 11.3 0.00 0.00 0.00 86 1016.3
20260906174402 23 354 6.4 8.0 0.00 0.00 0.00 85 1015.8
20260906173857 23 321 6.4 8.0 0.00 0.00 0.00 85 1016.1
20260906173353 23 347 14.5 16.1 0.00 0.00 0.00 85 1016.0
20260906172851 23 357 11.3 11.3 0.00 0.00 0.00 85 1015.9
20260906172348 23 296 9.7 11.3 0.00 0.00 0.00 84 1016.1
20260906171843 23 359 11.3 14.5 0.00 0.00 0.00 84 1015.8
20260906171338 24 328 11.3 12.9 0.00 0.00 0.00 83 1016.0
20260906170834 24 350 11.3 17.7 0.00 0.00 0.00 83 1016.1
20260906170330 26 324 11.3 16.1 0.00 0.00 0.00 80 1016.2
20260906165826 26 21 8.0 9.7 0.00 0.00 0.00 79 1015.9
20260906165325 26 352 8.0 9.7 0.00 0.00 0.00 78 1016.0
20260906164820 28 311 14.5 16.1 0.00 0.00 0.00 75 1015.9
20260906164320 28 321 4.8 8.0 0.00 0.00 0.00 75 1015.9
20260906163816 28 345 4.8 4.8 0.00 0.00 0.00 75 1015.7
20260906163312 28 48 3.2 4.8 0.00 0.00 0.00 75 1015.5
20260906162809 28 46 1.6 3.2 0.00 0.00 0.00 73 1015.4
20260906162308 28 280 4.8 8.0 0.00 0.00 0.00 74 1015.4
20260906161803 28 25 8.0 9.7 0.00 0.00 0.00 75 1015.1
20260906161302 28 330 3.2 4.8 0.00 0.00 0.00 75 1015.0
20260906160801 28 313 6.4 8.0 0.00 0.00 0.00 75 1014.8
20260906160256 28 359 8.0 9.7 0.00 0.00 0.00 76 1014.5
20260906155753 27 46 6.4 8.0 0.00 0.00 0.00 77 1014.6
20260906155248 27 44 1.6 3.2 0.00 0.00 0.00 79 1014.3
20260906154744 26 60 3.2 3.2 0.00 0.00 0.00 81 1014.3
20260906154238 26 49 4.8 8.0 0.00 0.00 0.00 79 1014.6
20260906153737 26 71 3.2 3.2 0.00 0.00 0.00 80 1014.4
20260906153232 26 34 1.6 4.8 0.00 0.00 0.00 82 1014.6
20260906152726 26 65 1.6 3.2 0.00 0.00 0.00 81 1014.3
20260906152221 25 115 3.2 3.2 0.00 0.00 0.00 82 1014.4
20260906151715 25 41 3.2 3.2 0.00 0.00 0.00 83 1014.4
20260906151211 25 57 6.4 8.0 0.00 0.00 0.00 84 1014.5
20260906150707 24 44 3.2 3.2 0.00 0.00 0.00 85 1014.1
20260906150202 23 33 3.2 3.2 0.00 0.00 0.00 85 1014.8
20260906145701 23 77 3.2 3.2 0.00 0.00 0.00 86 1014.6
20260906145200 23 56 1.6 3.2 0.00 0.00 0.00 87 1014.6
20260906144700 23 13 4.8 4.8 0.00 0.00 0.00 87 1014.6
20260906144155 22 306 3.2 3.2 0.00 0.00 0.00 88 1014.8
20260906143649 22 31 4.8 4.8 0.00 0.00 0.00 89 1014.8
20260906143147 22 296 6.4 8.0 0.00 0.00 0.00 89 1015.1
20260906142646 22 56 1.6 1.6 0.00 0.00 0.00 90 1014.9
20260906142141 22 100 0.0 0.0 0.00 0.00 0.00 90 1015.0
20260906141640 22 45 1.6 1.6 0.00 0.00 0.00 90 1015.2
20260906141135 22 218 3.2 3.2 0.00 0.00 0.00 90 1015.5
20260906140634 22 53 1.6 1.6 0.00 0.00 0.00 89 1015.0
20260906140129 22 222 4.8 4.8 0.00 0.00 0.00 89 1015.4
20260906135626 22 120 1.6 1.6 0.00 0.00 0.00 88 1014.8
20260906135122 22 251 6.4 8.0 0.00 0.00 0.00 88 1015.1
20260906134618 22 141 1.6 3.2 0.00 0.00 0.00 89 1014.9
20260906134113 21 68 3.2 3.2 0.00 0.00 0.00 91 1014.5
20260906133609 21 59 4.8 4.8 0.00 0.00 0.00 92 1014.3
20260906133103 20 48 3.2 3.2 0.00 0.00 0.00 92 1014.4
20260906132558 20 279 3.2 3.2 0.00 0.00 0.00 92 1014.6
20260906132054 20 124 1.6 1.6 0.00 0.00 0.00 92 1014.6
20260906131549 20 79 8.0 9.7 0.00 0.00 0.00 92 1014.5
20260906131044 20 74 9.7 11.3 0.00 0.00 0.00 92 1014.1
20260906130544 20 70 12.9 14.5 0.00 0.00 0.00 92 1014.1
20260906130039 20 81 8.0 12.9 0.00 0.00 0.00 92 1014.4
20260906125536 20 79 4.8 4.8 0.00 0.00 0.00 92 1014.6
20260906125031 20 58 4.8 4.8 0.00 0.00 0.00 92 1014.5
20260906124526 20 222 4.8 4.8 0.00 0.00 0.00 92 1015.2
20260906124021 20 77 3.2 4.8 0.00 0.00 0.00 92 1014.5
20260906123520 20 108 3.2 3.2 0.00 0.00 0.00 92 1014.9
20260906123015 20 45 1.6 1.6 0.00 0.00 0.00 92 1014.6
20260906122509 20 10 4.8 4.8 0.00 0.00 0.00 91 1014.9
20260906122006 20 194 1.6 1.6 0.00 0.00 0.00 91 1014.9
20260906121502 20 98 6.4 9.7 0.00 0.00 0.00 91 1014.8
20260906120958 20 123 11.3 12.9 0.00 0.00 0.00 91 1014.6
20260906120453 20 114 8.0 9.7 0.00 0.00 0.00 91 1014.6
20260906115949 20 105 6.4 8.0 0.00 0.00 0.00 91 1015.0
20260906115444 20 92 6.4 8.0 0.00 0.00 0.00 91 1014.9
20260906114944 20 105 4.8 4.8 0.00 0.00 0.00 91 1014.5
20260906114439 20 95 8.0 9.7 0.00 0.00 0.00 91 1014.8
20260906113935 20 117 8.0 9.7 0.00 0.00 0.00 91 1014.5
20260906113433 20 121 8.0 9.7 0.00 0.00 0.00 91 1014.4
20260906112929 20 88 11.3 12.9 0.00 0.00 0.00 92 1014.4
20260906112424 20 138 8.0 12.9 0.00 0.00 0.00 92 1014.5
20260906111920 20 110 8.0 11.3 0.00 0.00 0.00 92 1014.5
20260906111420 20 89 8.0 9.7 0.00 0.00 0.00 92 1014.5
20260906110914 20 114 8.0 9.7 0.00 0.00 0.00 92 1014.8
20260906110410 20 111 9.7 11.3 0.00 0.00 0.00 92 1014.5
20260906105909 20 115 8.0 9.7 0.00 0.00 0.00 92 1014.6
20260906105405 20 92 8.0 9.7 0.00 0.00 0.00 92 1014.5
20260906104901 20 114 8.0 9.7 0.00 0.00 0.00 92 1014.6
20260906104359 20 119 8.0 11.3 0.00 0.00 0.00 92 1014.6
20260906103858 20 113 8.0 11.3 0.00 0.00 0.00 92 1014.9
20260906103356 20 136 9.7 11.3 0.00 0.00 0.00 92 1014.8
20260906102852 20 125 11.3 14.5 0.00 0.00 0.00 92 1014.6
20260906102351 20 95 11.3 12.9 0.00 0.00 0.00 92 1014.6
20260906101846 20 108 12.9 14.5 0.00 0.00 0.00 92 1014.5
20260906101342 20 103 11.3 12.9 0.00 0.00 0.00 92 1014.6
20260906100837 20 90 11.3 12.9 0.00 0.00 0.00 92 1014.5
20260906100336 20 85 9.7 11.3 0.00 0.00 0.00 92 1014.9
20260906095831 20 122 11.3 12.9 0.00 0.00 0.00 92 1014.8
20260906095327 20 134 11.3 12.9 0.00 0.00 0.00 92 1014.9
20260906094826 20 90 12.9 14.5 0.00 0.00 0.00 92 1014.9
20260906094321 20 134 8.0 9.7 0.00 0.00 0.00 92 1014.6
20260906093817 20 112 12.9 14.5 0.00 0.00 0.00 92 1014.8
20260906093313 20 102 11.3 14.5 0.00 0.00 0.00 92 1014.8
20260906092808 20 91 11.3 12.9 0.00 0.00 0.00 92 1014.5
20260906092305 20 123 12.9 12.9 0.00 0.00 0.00 91 1014.6
20260906091758 20 127 9.7 9.7 0.00 0.00 0.00 91 1014.6
20260906091254 20 137 12.9 16.1 0.00 0.00 0.00 91 1014.6
20260906090750 20 114 9.7 12.9 0.00 0.00 0.00 91 1014.6
20260906090248 20 146 9.7 12.9 0.00 0.00 0.00 91 1014.6
20260906085748 20 137 14.5 17.7 0.00 0.00 0.00 92 1014.6
20260906085242 20 88 8.0 11.3 0.00 0.00 0.00 92 1014.8
20260906084737 20 119 8.0 9.7 0.00 0.00 0.00 92 1014.5
20260906084236 20 113 9.7 11.3 0.00 0.00 0.00 92 1014.8
20260906083732 20 94 11.3 11.3 0.00 0.00 0.00 92 1014.9
20260906083226 20 113 8.0 12.9 0.00 0.00 0.00 92 1014.8
20260906082721 20 87 9.7 12.9 0.00 0.00 0.00 92 1014.6
20260906082211 20 93 9.7 11.3 0.00 0.00 0.00 91 1014.8
20260906081707 20 93 11.3 14.5 0.00 0.00 0.00 91 1015.0
20260906081202 20 90 9.7 12.9 0.00 0.00 0.00 91 1014.5
20260906080659 20 69 14.5 16.1 0.00 0.00 0.00 92 1014.5
20260906080154 20 76 11.3 12.9 0.00 0.00 0.00 92 1014.6
20260906075654 20 83 11.3 14.5 0.00 0.00 0.00 92 1014.6
20260906075143 20 73 8.0 11.3 0.00 0.00 0.00 92 1014.2
20260906074638 20 91 4.8 9.7 0.00 0.00 0.00 91 1014.5
20260906074137 20 45 11.3 16.1 0.00 0.00 0.00 91 1014.5
20260906073632 20 71 12.9 14.5 0.00 0.00 0.00 91 1014.8
20260906073128 20 81 14.5 16.1 0.00 0.00 0.00 91 1014.6
20260906072623 20 77 11.3 14.5 0.00 0.00 0.00 91 1014.5
20260906072119 20 79 8.0 9.7 0.00 0.00 0.00 91 1014.6
20260906071615 20 98 12.9 16.1 0.00 0.00 0.00 91 1014.6
20260906071115 20 66 11.3 12.9 0.00 0.00 0.00 91 1014.5
20260906070611 20 87 14.5 17.7 0.00 0.00 0.00 91 1014.8
20260906070106 20 76 9.7 11.3 0.00 0.00 0.00 90 1014.9
20260906065606 20 88 11.3 14.5 0.00 0.00 0.00 90 1014.8
20260906065101 21 82 14.5 14.5 0.00 0.00 0.00 90 1014.8
20260906064557 21 87 4.8 4.8 0.00 0.00 0.00 90 1014.6
20260906064052 20 97 8.0 11.3 0.00 0.00 0.00 90 1015.1
20260906063547 20 117 11.3 12.9 0.00 0.00 0.00 90 1015.0
20260906063043 20 132 12.9 14.5 0.00 0.00 0.00 90 1015.0
20260906062539 21 94 12.9 16.1 0.00 0.00 0.00 90 1014.6
20260906062032 21 99 11.3 14.5 0.00 0.00 0.00 90 1014.5
20260906061529 21 80 11.3 12.9 0.00 0.00 0.00 90 1014.6
20260906061028 21 96 11.3 14.5 0.00 0.00 0.00 90 1014.6
20260906060525 21 93 9.7 11.3 0.00 0.00 0.00 89 1015.0
20260906060022 21 88 8.0 9.7 0.00 0.00 0.00 89 1014.9
20260906055517 21 54 11.3 12.9 0.00 0.00 0.00 89 1015.0
20260906055013 21 85 6.4 9.7 0.00 0.00 0.00 89 1015.1
20260906054513 21 96 11.3 12.9 0.00 0.00 0.00 89 1014.9
20260906054008 21 99 11.3 12.9 0.00 0.00 0.00 88 1015.1
20260906053504 21 92 8.0 11.3 0.00 0.00 0.00 88 1014.9
20260906053000 21 90 6.4 8.0 0.00 0.00 0.00 88 1014.9
20260906052455 21 88 11.3 16.1 0.00 0.00 0.00 87 1015.0
20260906051952 21 56 12.9 14.5 0.00 0.00 0.00 87 1014.8
20260906051447 21 93 11.3 14.5 0.00 0.00 0.00 87 1014.9
20260906050943 22 98 14.5 16.1 0.00 0.00 0.00 87 1014.5
20260906050442 21 93 12.9 16.1 0.00 0.00 0.00 87 1014.2
20260906045942 21 105 11.3 14.5 0.00 0.00 0.00 87 1014.6
20260906045441 22 76 11.3 12.9 0.00 0.00 0.00 86 1014.6
20260906044937 22 88 8.0 9.7 0.00 0.00 0.00 86 1014.9
20260906044432 22 66 9.7 11.3 0.00 0.00 0.00 85 1014.8
20260906043928 22 89 12.9 16.1 0.00 0.00 0.00 85 1014.8
20260906043423 22 108 16.1 22.5 0.00 0.00 0.00 85 1014.5
20260906042919 22 68 17.7 25.7 0.00 0.00 0.00 85 1014.4
20260906042418 22 72 11.3 16.1 0.00 0.00 0.00 85 1014.8
20260906041913 22 88 11.3 14.5 0.00 0.00 0.00 85 1014.5
20260906041409 22 101 11.3 12.9 0.00 0.00 0.00 84 1014.9
20260906040909 22 83 12.9 17.7 0.00 0.00 0.00 84 1014.9
20260906040404 22 73 9.7 11.3 0.00 0.00 0.00 84 1014.8
20260906035859 22 78 11.3 12.9 0.00 0.00 0.00 84 1015.1
20260906035355 22 78 8.0 9.7 0.00 0.00 0.00 84 1014.4
20260906034849 22 96 14.5 16.1 0.00 0.00 0.00 83 1014.8
20260906034344 22 66 9.7 14.5 0.00 0.00 0.00 83 1014.4
20260906033841 23 134 12.9 17.7 0.00 0.00 0.00 82 1014.4
20260906033339 23 130 11.3 12.9 0.00 0.00 0.00 82 1014.4
20260906032836 23 79 11.3 14.5 0.00 0.00 0.00 82 1014.1
20260906032332 23 80 16.1 17.7 0.00 0.00 0.00 82 1014.1
20260906031827 23 68 11.3 14.5 0.00 0.00 0.00 82 1014.2
20260906031322 23 60 12.9 16.1 0.00 0.00 0.00 83 1014.3
20260906030821 23 92 14.5 20.9 0.00 0.00 0.00 83 1014.1
20260906030317 23 72 11.3 12.9 0.00 0.00 0.00 82 1014.1
20260906025817 23 63 11.3 12.9 0.00 0.00 0.00 82 1014.2
20260906025311 23 72 16.1 17.7 0.00 0.00 0.00 82 1014.2
20260906024810 23 70 11.3 14.5 0.00 0.00 0.00 82 1014.3
20260906024304 23 73 14.5 17.7 0.00 0.00 0.00 82 1014.3
20260906023800 23 87 11.3 14.5 0.00 0.00 0.00 82 1014.0
20260906023254 23 69 14.5 16.1 0.00 0.00 0.00 82 1014.1
20260906022750 23 76 11.3 14.5 0.00 0.00 0.00 82 1014.0
20260906022245 23 63 14.5 20.9 0.00 0.00 0.00 81 1013.8
20260906021742 23 72 9.7 14.5 0.00 0.00 0.00 80 1013.6
20260906021240 24 72 6.4 8.0 0.00 0.00 0.00 79 1013.9
20260906020735 24 91 4.8 8.0 0.00 0.00 0.00 78 1013.6
20260906020235 24 93 8.0 9.7 0.00 0.00 0.00 77 1013.6
20260906015730 24 96 8.0 9.7 0.00 0.00 0.00 76 1013.3
20260906015228 25 108 9.7 11.3 0.00 0.00 0.00 75 1013.7
20260906014723 25 81 9.7 9.7 0.00 0.00 0.00 74 1013.3
20260906014219 25 81 9.7 11.3 0.00 0.00 0.00 74 1013.4
20260906013715 25 102 12.9 14.5 0.00 0.00 0.00 73 1013.2
20260906013215 25 95 12.9 14.5 0.00 0.00 0.00 72 1013.2
20260906012710 25 106 11.3 14.5 0.00 0.00 0.00 72 1013.2
20260906012204 25 103 8.0 9.7 0.00 0.00 0.00 71 1013.0
20260906011659 25 99 11.3 12.9 0.00 0.00 0.00 71 1013.2
20260906011154 25 72 11.3 14.5 0.00 0.00 0.00 70 1013.1
20260906010650 26 86 9.7 11.3 0.00 0.00 0.00 70 1013.1
20260906010146 26 82 6.4 8.0 0.00 0.00 0.00 69 1013.2
20260906005645 26 85 8.0 9.7 0.00 0.00 0.00 68 1012.9
20260906005144 27 105 12.9 14.5 0.00 0.00 0.00 68 1013.2
20260906004644 27 94 9.7 11.3 0.00 0.00 0.00 66 1013.1
20260906004139 27 113 11.3 12.9 0.00 0.00 0.00 66 1013.2
20260906003634 27 80 8.0 9.7 0.00 0.00 0.00 66 1013.2
20260906003130 28 100 6.4 8.0 0.00 0.00 0.00 67 1013.2
20260906002624 28 102 8.0 14.5 0.00 0.00 0.00 68 1013.3
20260906002119 28 153 14.5 22.5 0.00 0.00 0.00 68 1013.5
20260906001614 28 112 12.9 16.1 0.00 0.00 0.00 68 1013.4
20260906001109 28 108 14.5 16.1 0.00 0.00 0.00 68 1013.7
20260906000605 28 88 17.7 22.5 0.00 0.00 0.00 68 1013.7
20260906000100 28 136 16.1 20.9 0.00 0.00 0.00 69 1013.6
20260905235559 28 75 12.9 17.7 0.00 0.00 0.00 70 1013.8
20260905235054 28 109 19.3 22.5 0.00 0.00 0.00 70 1013.7
20260905234550 28 135 11.3 14.5 0.00 0.00 0.00 69 1013.7
20260905234044 28 109 17.7 25.7 0.00 0.00 0.00 69 1013.7
20260905233539 28 128 14.5 17.7 0.00 0.00 0.00 69 1013.6
20260905233039 28 129 20.9 22.5 0.00 0.00 0.00 69 1013.7
20260905232534 29 65 22.5 29.0 0.00 0.00 0.00 67 1013.4
20260905232030 30 109 11.3 14.5 0.00 0.00 0.00 65 1013.3
20260905231525 31 66 19.3 27.4 0.00 0.00 0.00 58 1013.4
20260905231021 32 68 16.1 17.7 0.00 0.00 0.00 52 1013.0
20260905230520 32 108 14.5 16.1 0.00 0.00 0.00 52 1013.1
20260905230019 32 112 19.3 24.1 0.00 0.00 0.00 51 1012.9
20260905225514 32 110 9.7 11.3 0.00 0.00 0.00 52 1012.9
20260905225009 32 136 16.1 24.1 0.00 0.00 0.00 51 1012.9
20260905224504 32 120 11.3 12.9 0.00 0.00 0.00 51 1013.0
20260905224003 32 85 11.3 12.9 0.00 0.00 0.00 51 1012.3
20260905223501 32 95 16.1 20.9 0.00 0.00 0.00 51 1012.4
20260905222956 32 121 12.9 17.7 0.00 0.00 0.00 50 1012.1
20260905222456 32 168 16.1 22.5 0.00 0.00 0.00 50 1011.9
20260905221951 32 100 14.5 16.1 0.00 0.00 0.00 50 1011.9
20260905221448 33 119 17.7 20.9 0.00 0.00 0.00 49 1011.9
20260905220944 33 92 9.7 11.3 0.00 0.00 0.00 49 1011.9
20260905220440 33 121 9.7 11.3 0.00 0.00 0.00 48 1011.8
20260905215938 33 155 11.3 14.5 0.00 0.00 0.00 47 1012.0
20260905215434 33 74 12.9 16.1 0.00 0.00 0.00 47 1012.1
20260905214930 33 134 4.8 4.8 0.00 0.00 0.00 46 1012.5
20260905214425 33 81 16.1 17.7 0.00 0.00 0.00 48 1012.7
20260905213920 33 164 9.7 14.5 0.00 0.00 0.00 44 1012.7
20260905213416 33 154 11.3 12.9 0.00 0.00 0.00 44 1012.6
20260905212912 33 113 8.0 11.3 0.00 0.00 0.00 45 1012.5
20260905212406 33 105 16.1 17.7 0.00 0.00 0.00 44 1012.6
20260905211900 33 124 12.9 14.5 0.00 0.00 0.00 44 1012.6
20260905211356 33 120 8.0 9.7 0.00 0.00 0.00 45 1012.3